TimeEEST,TemperatureF,Dew PointF,Humidity,Sea Level PressureIn,VisibilityMPH,Wind Direction,Wind SpeedMPH,Gust SpeedMPH,PrecipitationIn,Events,Conditions,WindDirDegrees,DateUTC
12:50 AM,50.0,44.6,82,30.06,-9999.0,NE,5.8,-,N/A,,Clear,40,2013-06-23 21:50:00
1:50 AM,51.8,46.4,82,30.06,-9999.0,ENE,2.3,-,N/A,,Clear,60,2013-06-23 22:50:00
3:00 AM,48,45,87,,6,WNW,1.2,,,,,290,2013-06-24 00:00:00
3:50 AM,44.6,44.6,100,30.06,-9999.0,Variable,1.2,-,N/A,,Clear,0,2013-06-24 00:50:00
4:50 AM,42.8,42.8,100,30.06,-9999.0,Calm,Calm,-,N/A,,Clear,0,2013-06-24 01:50:00
5:50 AM,46.4,44.6,93,30.06,-9999.0,Calm,Calm,-,N/A,,Clear,0,2013-06-24 02:50:00
6:50 AM,51.8,46.4,82,30.06,-9999.0,Calm,Calm,-,N/A,,Clear,0,2013-06-24 03:50:00
7:50 AM,57.2,48.2,72,30.06,-9999.0,Calm,Calm,-,N/A,,Clear,0,2013-06-24 04:50:00
8:50 AM,62.6,50.0,63,30.04,-9999.0,Variable,2.3,-,N/A,,Clear,0,2013-06-24 05:50:00
9:00 AM,63,50,53,,6,ENE,2.3,,,,,60,2013-06-24 06:00:00
9:50 AM,66.2,51.8,60,30.04,-9999.0,North,3.5,-,N/A,,Clear,10,2013-06-24 06:50:00
10:50 AM,68.0,51.8,56,30.04,6.2,Variable,2.3,-,N/A,,Partly Cloudy,0,2013-06-24 07:50:00
11:50 AM,69.8,53.6,56,30.04,6.2,ESE,3.5,-,N/A,,Partly Cloudy,110,2013-06-24 08:50:00
12:50 PM,73.4,48.2,41,30.01,6.2,Variable,2.3,-,N/A,,Partly Cloudy,0,2013-06-24 09:50:00
1:50 PM,75.2,48.2,38,30.01,6.2,Variable,1.2,-,N/A,,Partly Cloudy,0,2013-06-24 10:50:00
2:50 PM,75.2,42.8,31,29.98,6.2,Variable,3.5,-,N/A,,Scattered Clouds,0,2013-06-24 11:50:00
3:00 PM,75,43,21,,6,NNW,3.5,,,,Partly Cloudy,340,2013-06-24 12:00:00
4:50 PM,75.2,48.2,38,29.98,-9999.0,Variable,1.2,-,N/A,,Clear,0,2013-06-24 13:50:00
5:50 PM,68.0,50.0,52,29.98,6.2,NE,10.4,-,N/A,,Scattered Clouds,40,2013-06-24 14:50:00
6:10 PM,68.0,51.8,56,29.98,6.2,NE,9.2,-,N/A,Thunderstorm,Thunderstorm,40,2013-06-24 15:10:00
6:50 PM,68.0,50.0,52,29.98,6.2,NE,9.2,-,N/A,,Scattered Clouds,50,2013-06-24 15:50:00
7:16 PM,64.4,48.2,56,29.98,6.2,NNE,10.4,-,N/A,,Scattered Clouds,30,2013-06-24 16:16:00
7:45 PM,62.6,48.2,59,30.01,6.2,ENE,8.1,-,N/A,Thunderstorm,Scattered Clouds,60,2013-06-24 16:45:00
7:50 PM,60.8,48.2,63,30.01,6.2,ENE,8.1,-,N/A,Thunderstorm,Mostly Cloudy,70,2013-06-24 16:50:00
8:19 PM,62.6,48.2,59,30.01,6.2,NNE,8.1,-,N/A,Thunderstorm,Thunderstorm,30,2013-06-24 17:19:00
8:50 PM,64.4,50.0,59,30.04,6.2,NE,10.4,-,N/A,Thunderstorm,Thunderstorm,50,2013-06-24 17:50:00
9:00 PM,64,49,47,,6,NE,10.4,,,Thunderstorm,Thunderstorm,50,2013-06-24 18:00:00
9:50 PM,55.4,50.0,82,30.04,6.2,ENE,11.5,-,N/A,Thunderstorm,Thunderstorm,70,2013-06-24 18:50:00
10:50 PM,53.6,50.0,88,30.04,6.2,NE,9.2,-,N/A,,Scattered Clouds,50,2013-06-24 19:50:00
11:50 PM,51.8,51.8,100,30.04,6.2,NE,4.6,-,N/A,,Partly Cloudy,50,2013-06-24 20:50:00